STARLINK-1094, 44941

Orbit data source: Space-Track

STARLINK-1094, 44941 is a payload satellite owned by SpaceX/Seattle (US) in LEO that was launched on Tue, 07 Jan 2020 UTC via an FALCON 9 launch vehicle from the Air Force Eastern Test Range (AFETR). Payload-class satellites include a variety of spacecraft equipped with specific instruments for various scientific and technological missions. These include communications satellites like Starlink; space stations such as the ISS; scientific satellites like the Hubble; Earth observation satellites from companies like Planet Labs, Umbra, and HawkEye 360; GPS; miniature CubeSats for education and research; and military/defense satellites.

Loading next visibility...
Identifier
44941, 2020-001AD
Orbit
LEO
Last TLE update
1 day ago
Origin
Manufacturer
SpaceX/Seattle
Mission
Operational Commercial Communications
Bus & Motor
STARLINK, Unknown motor
Mass
260 kg wet, ~248 kg dry
Launch date (UTC)
2020-01-07 (5 years ago)
Launch vehicle
FALCON 9
Launch site
Air Force Eastern Test Range (AFETR)
Object type
Payload
Rocket body
Debris
Shape & HBR
Box + 1 Pan, 8.86 m
Radar Cross Section
13.562 m², Large (>1 m²)

Expand to show TLE details & history

TLE from 1 day ago
0 STARLINK-1094
1 44941U 20001AD  25169.14480690  .00002827  00000-0  20856-3 0  9993
2 44941  53.0560  74.2035 0001370  89.9867 270.1279 15.06413251300258
Epoch: 2025-06-18T03:28Z
TLE epoch observation values (Epoch: 2025-06-18T03:28:31.316Z)
Latitude
-0.00001°
Longitude
115.44196°
Altitude
548.048 km
Speed
7.589 km/s
True Right ascension
04h 56m 48s
True Declination
0° 00' 00"
Sunlit
Object was in daylight at epoch
Visualization orbit readout
Latitude
-34.19199°
Longitude
-38.9713°
Altitude
558.562 km
Speed
7.582 km/s
Apparent Right ascension
22h 32m 32s
Apparent Declination
-71° 12' 39"
Sunlit
Object is in full shadow
Visualization observer readout
Local Sidereal Time
16:47:02
Azimuth
156.498° SSE
Elevation
-36.288°
Doppler factor
1
Orbital elements
Apogee altitude
548.39 km
Perigee altitude
546.493 km
Semi-major axis
6,925.578 km
Eccentricity
0.00014
Inclination
53.056°
RAAN
74.2035°
Arg. of periapsis
89.9867°
True anomaly
Unknown
Mean anomaly
270.1279°
Eccentric anomaly
Unknown
Mean motion
3.76582 °/min
Orbital period
95.6 mins
BSTAR
0.00020856
Loading maneuver chart data...
Loading SW <> Apogee altitude chart data...

STARLINK-1094 Visibility forecast

Observer location: undefined°, undefined°

Span
Click to sort rows by Start time (UTC) header in descending order
Start Az.
Max El. time (UTC)
Max El. Az.
Max El.
End time (UTC)
End Az.
6 mins2025-06-19 19:26:38.743Z197.782° SSW2025-06-19 19:29:38.743Z132.311° SE32.744°2025-06-19 19:32:38.743Z68.327° E
6 mins2025-06-19 21:06:38.743Z274.779° WNW2025-06-19 21:09:38.743Z344.96° N27.891°2025-06-19 21:12:38.743Z34.178° NE
6 mins2025-06-20 02:08:38.743Z330.835° NNW2025-06-20 02:10:38.743Z17.283° NNE33.898°2025-06-20 02:14:38.743Z104.854° ESE
5 mins2025-06-20 03:48:38.743Z268.615° W2025-06-20 03:50:38.743Z222.307° SW24.452°2025-06-20 03:53:38.743Z172.715° S
|